Regional Weather Roundup
Issued by NWS

Home | Current Version | Previous Version | Graphics & Text | Print | Product List | Glossary On
Versions: 1 2 3 4 5 6 7 8 9 10 11 12 13 14 15 16 17 18 19 20 21 22 23 24 25 26 27 28 29 30 31 32 33 34 35 36 37 38 39 40 41 42 43 44 45 46 47 48 49 50
000
ASUS45 KCYS 310410
RWRWY

WYOMING REGIONAL WEATHER ROUNDUP
NATIONAL WEATHER SERVICE CHEYENNE WY
1000 PM MDT WED JUL 30 2014

NOTE:  "FAIR" INDICATES FEW OR NO CLOUDS BELOW 12,000 FEET
WITH NO SIGNIFICANT WEATHER AND/OR OBSTRUCTIONS TO VISIBILITY.

WYZ001-310500-
YELLOWSTONE NATIONAL PARK

CITY           SKY/WX    TMP DP  RH WIND       PRES   REMARKS
LK YELLOWSTONE   N/A     51  44  77 CALM      30.47R
W YELLOWSTONE  NOT AVBL

$$
WYZ002>013-054>058-071-098>099-310500-
NORTHERN WYOMING

CITY           SKY/WX    TMP DP  RH WIND       PRES   REMARKS
JACKSON        MOCLDY    59  50  72 S3        30.38R
CODY           NOT AVBL
GREYBULL       MOCLDY    74  46  36 S5        30.18R
WORLAND        CLOUDY    73  47  39 SE8       30.21R
SHERIDAN       MOCLDY    63  45  51 S5        30.22R
BUFFALO        CLOUDY    64  38  38 W5        30.29R
GILLETTE       CLOUDY    64  45  49 CALM      30.24R
HULETT         FAIR      61  46  59 MISG      30.25
NEWCASTLE      FAIR      64  43  45 CALM      30.24

$$
WYZ014>020-022>026-101>103-310500-
CENTRAL WYOMING

CITY           SKY/WX    TMP DP  RH WIND       PRES   REMARKS
BIG PINEY      MOCLDY    54  48  80 NW5       30.44R
PINEDALE       PTCLDY    48  45  87 W5        30.45R
DUBOIS         FAIR      54  32  43 SW8       30.43R
LANDER         MOCLDY    66  43  43 W10       30.31R
RIVERTON       MOCLDY    64  43  46 NW9       30.32R
CASPER         CLOUDY    66  44  45 W6        30.28R
DOUGLAS        CLOUDY    64  53  67 E3        30.27R

$$
WYZ021-027>030-104>119-310500-
SOUTHERN WYOMING

CITY           SKY/WX    TMP DP  RH WIND       PRES   REMARKS
EVANSTON       CLOUDY    58  52  80 NE8       30.40R
KEMMERER       CLOUDY   N/A N/A N/A CALM      30.44R
FORT BRIDGER   CLOUDY    58  54  86 NE5       30.45R
ROCK SPRINGS   MOCLDY    58  42  55 NE8       30.40R
DIXON          CLOUDY    61  50  68 NE6       30.37R
RAWLINS        CLOUDY    58  50  75 E10       30.38R
SARATOGA       MOCLDY    57  48  72 S10       30.40S
LARAMIE        CLOUDY    55  51  86 CALM      30.41S
CHEYENNE       CLOUDY    57  54  89 SW8       30.36R
TORRINGTON     CLOUDY    65  57  75 S3        30.23R
PINE BLUFFS    FAIR      57  55  94 S3        30.33S

$$


USA.gov is the U.S. government's official web portal to all federal, state and local government web resources and services.